Overview Statistics Trail Chart Weather Telemetry Raw packets
 

This is the latest recevied weather packets stored in our database for station/object KC5TIL. If no packets are shown the sender has not sent any weather packets the latest 10 day(s).

<< 31 32 33 34 35 36 37 >>
Time Temp. Humidity Pressure Rain* Wind** Luminosity Snow
1788395619 33.89° C 57% 1012.3 hPa 0 mm - 12 W/m² -
1788395319 33.89° C 56% 1012.2 hPa 0 mm - 16 W/m² -
1788395014 34.44° C 53% 1012.1 hPa 0 mm - 21 W/m² -
1788394708 34.44° C 56% 1012 hPa 0 mm - 25 W/m² -
1788394404 35° C 53% 1011.9 hPa 0 mm - 30 W/m² -
1788394104 35.56° C 52% 1012 hPa 0 mm - 31 W/m² -
1788393799 35.56° C 51% 1012.1 hPa 0 mm - 30 W/m² -
1788393496 35.56° C 51% 1011.9 hPa 0 mm - 32 W/m² -
1788393192 35.56° C 46% 1011.8 hPa 0 mm - 35 W/m² -
1788392916 36.11° C 48% 1011.8 hPa 0 mm - 38 W/m² -
1788392586 36.11° C 47% 1011.9 hPa 0 mm - 39 W/m² -
1788392285 36.11° C 46% 1012 hPa 0 mm - 46 W/m² -
1788391984 35.56° C 49% 1011.9 hPa 0 mm - 42 W/m² -
1788391683 36.11° C 48% 1011.9 hPa 0 mm - 43 W/m² -
1788391378 36.11° C 45% 1011.7 hPa 0 mm - 43 W/m² -
1788391077 36.67° C 44% 1011.8 hPa 0 mm - 79 W/m² -
1788390772 36.67° C 41% 1011.8 hPa 0 mm - 43 W/m² -
1788390467 36.67° C 43% 1011.9 hPa 0 mm - 58 W/m² -
1788390166 36.67° C 42% 1011.9 hPa 0 mm - 117 W/m² -
1788389861 36.67° C 42% 1011.9 hPa 0 mm - 209 W/m² -
1788389556 36.67° C 43% 1011.8 hPa 0 mm - 213 W/m² -
1788389254 36.67° C 43% 1011.9 hPa 0 mm - 206 W/m² -
1788388950 37.22° C 42% 1011.8 hPa 0 mm - 208 W/m² -
1788388646 37.22° C 41% 1012.1 hPa 0 mm - 253 W/m² -
1788388345 37.22° C 42% 1011.9 hPa 0 mm - 278 W/m² -

* Rain latest hour (hover to see other rain measurements)
** Current wind speed in m/s (hover to see current wind gust speed)